#timestamp,LO_Frequency,Hit,StdDev 
1511010015.5,286047006.5,N
1511010035.3,286047008.7,N
1511010055.2,286047006.3,N
1511010075.9,286047006.5,N
1511010095.7,286047012.0,N
1511010115.6,286047005.3,N
1511010135.4,286046998.9,N
1511010155.2,286046991.8,N
1511010175.0,286046991.9,N
1511010175.9,286046991.9,N
1511010195.8,286046992.6,N
1511010215.6,286046991.9,N
1511010235.4,286046993.3,N
1511010255.3,286046994.2,N
1511010275.1,286046994.4,N
1511010295.8,286046999.0,N
1511010315.7,286047001.2,N
1511010335.5,286046999.7,N
1511010355.3,286047002.4,N
1511010375.2,286047002.8,N
1511010395.9,286047004.1,N
1511010415.7,286047003.6,N
1511010435.6,286047005.6,N
1511010455.4,286047001.9,N
1511010475.2,286046999.2,N
1511010495.0,286046998.0,N
1511010496.0,286046998.0,N
1511010515.8,286046999.7,N
1511010535.6,286047005.1,N
1511010555.4,286047007.4,N
1511010575.3,286047004.1,N
1511010595.1,286047001.7,N
1511010615.8,286047003.7,N
1511010635.7,286047004.0,N
1511010655.5,286047005.6,N
1511010675.3,286047004.6,N
1511010695.2,286047007.1,N
1511010715.9,286047005.0,N
1511010735.7,286047004.4,N
1511010755.6,286047002.5,N
1511010775.4,286046999.2,N
1511010795.2,286047002.0,N
1511010815.0,286047003.3,N
1511010816.0,286047003.3,N
1511010835.8,286047006.8,N
1511010855.6,286047003.5,N
1511010875.5,286047010.7,Y
1511010895.3,286047003.0,P
1511010915.1,286047003.3,P
1511010935.8,286047007.6,P
1511010955.7,286047006.4,Y
1511010975.5,286047001.4,P
1511010995.3,286047004.4,P
1511011015.2,286047003.5,N
1511011035.0,286047005.0,Y
1511011035.9,286047005.0,P
1511011055.8,286047000.7,N
1511011075.6,286046993.6,P
1511011095.4,286046989.0,N
1511011115.2,286046986.4,N
1511011135.1,286046981.6,N
1511011136.0,286046981.6,N
1511011155.8,286046981.9,N
1511011175.6,286046978.1,N
1511011195.5,286046976.1,N
1511011215.3,286046978.5,N
1511011235.1,286046976.0,N
1511011255.9,286046976.8,N
1511011275.7,286046974.9,N
1511011295.5,286046978.6,N
1511011315.4,286046976.9,N
1511011335.2,286046973.4,N
1511011355.0,286046974.3,N
1511011355.9,286046974.3,N
1511011375.8,286046974.3,N
1511011395.6,286046977.7,N
1511011415.4,286046978.7,N
1511011435.2,286046980.0,N
1511011455.1,286046980.4,N
1511011456.0,286046980.4,N
1511011475.8,286046977.6,N
1511011495.6,286046978.1,N
1511011515.5,286046976.0,N
1511011535.3,286046974.9,N
1511011555.1,286046977.6,N
1511011575.9,286046980.0,N
1511011595.7,286046980.9,Y
1511011615.5,286047004.0,P
1511011635.4,286047000.0,N
1511011655.2,286047002.5,N
1511011675.0,286047003.8,N
1511011675.9,286047003.8,N
1511011695.8,286047006.3,N
1511011715.6,286047010.3,N
1511011735.4,286047008.0,N
1511011755.3,286047010.8,N
1511011775.1,286047014.8,N
1511011776.0,286047014.8,N
1511011795.8,286047013.8,N
1511011815.6,286047007.1,N
1511011835.5,286047003.0,N
1511011855.3,286047009.2,N
1511011875.1,286047008.5,N
1511011895.9,286047011.1,N
1511011915.7,286047014.3,N
1511011935.5,286047015.0,N
1511011955.4,286047015.4,N
1511011975.2,286047016.0,N
1511011995.0,286047013.5,N
1511011995.9,286047013.5,N
1511012015.8,286047010.5,N
1511012035.6,286047004.9,N
1511012055.4,286047003.1,N
1511012075.2,286047002.5,N
1511012095.1,286047002.1,N
1511012096.0,286047002.1,N
1511012115.8,286047002.7,N
1511012135.6,286046999.0,N
1511012155.5,286046995.6,N
1511012175.3,286046998.3,N
1511012195.1,286047002.6,N
1511012215.9,286047003.8,N
1511012235.7,286047004.8,N
1511012255.5,286047007.9,N
1511012275.4,286047011.3,N
1511012295.2,286047012.5,N
1511012315.0,286047014.2,N
1511012315.9,286047014.2,N
1511012335.8,286047013.1,N
1511012355.6,286047011.1,N
1511012375.4,286047013.9,N
1511012395.3,286047011.2,N
1511012415.1,286047012.1,N
1511012416.0,286047012.1,N
1511012435.8,286047013.4,N
1511012455.7,286047016.6,N
1511012475.5,286047014.3,N
1511012495.3,286047012.9,N
1511012515.1,286047012.9,N
1511012535.9,286047013.7,N
1511012555.7,286047011.9,N
1511012575.5,286047008.3,N
1511012595.4,286047006.7,N
1511012615.2,286047008.7,N
1511012635.0,286047008.0,N
1511012635.9,286047008.0,N
1511012655.8,286047006.4,N
1511012675.6,286047010.5,N
1511012695.4,286047007.5,N
1511012715.3,286047003.1,N
1511012735.1,286047002.2,N
1511012736.0,286047002.2,N
1511012755.8,286047003.2,N
1511012775.7,286047002.8,N
1511012795.5,286047000.1,N
1511012815.3,286047002.4,N
1511012835.2,286047002.4,N
1511012855.9,286047000.4,N
1511012875.7,286047003.7,N
1511012895.5,286047007.0,N
1511012915.4,286047004.9,N
1511012935.2,286047008.3,N
1511012955.0,286047008.2,N
1511012955.9,286047008.2,N
1511012975.8,286047012.3,N
1511012995.6,286047012.2,N
1511013015.4,286047010.9,N
1511013035.3,286047013.9,Y
1511013055.1,286047008.8,P
1511013075.8,286047009.2,P
1511013095.7,286047004.8,P
1511013115.5,286047007.0,Y
1511013135.3,286047005.3,P
1511013155.2,286047000.1,N
1511013175.0,286047002.3,N
1511013175.9,286047002.3,N
1511013195.7,286047002.2,N
1511013215.6,286047002.9,N
1511013235.4,286047004.5,N
1511013255.2,286047008.7,Y
1511013275.1,286047006.8,P
1511013276.0,286047006.8,P
1511013295.8,286047007.8,P
1511013315.6,286047011.1,Y
1511013335.5,286046999.2,P
1511013355.3,286046994.7,N
1511013375.1,286046994.7,N
1511013395.9,286046996.1,N
1511013415.7,286046994.4,N
1511013435.5,286046992.8,N
1511013455.4,286046997.3,N
1511013475.2,286046997.5,N
1511013495.0,286046996.7,N
1511013495.9,286046996.7,N
1511013515.8,286046999.2,N
1511013535.6,286046996.1,N
1511013555.4,286046999.6,N
1511013575.2,286047000.6,N
1511013595.1,286047001.9,N
1511013596.0,286047001.9,N
